CZ-3C DEB, 40197

Orbit data source: Space-Track

CZ-3C DEB, 40197 is space debris in HEO originally from a launch on Fri, 24 Feb 2012 UTC launched from the Xichang Space Center, China (XSC). Debris objects in space refer to the collection of defunct objects orbiting the Earth. Examples of debris include non-operational satellites, rocket bodies, and fragments generated from explosions, collisions, or faulty payload assembly.

Loading next visibility...
Identifier
40197, 2012-008G
Orbit
HEO
Country
Flag of CNCN / PRC
Related business
Manufacturer
CALT
Mission
Spacecraft
Bus & Motor
Unknown
Mass
Unknown
Launch date (UTC)
2012-02-24 (14 years ago)
Launch vehicle
Unknown
Launch site
Xichang Space Center, China (XSC)
Object type
Payload
Rocket body
Debris
Shape & HBR
Unknown shape, 0.2 m
Radar Cross Section
Medium (>0.1 m² and <1 m²)

Expand to show TLE details & history
Last TLE update: 3 days ago

TLE from 3 days ago
0 CZ-3C DEB
1 40197U 12008G   26170.77526703 -.00000167  00000-0  00000-0 0  9990
2 40197  20.4637 249.0877 6976090 154.2744 270.4084  2.19849855101037
Epoch: 2026-06-19T18:36Z
TLE epoch observation values (Epoch: 2026-06-19T18:36:23.071Z)
Latitude
0.00005°
Longitude
62.02789°
Altitude
28,150.695 km
Speed
2.671 km/s
True Right ascension
16h 36m 29s
True Declination
0° 00' 00"
Sunlit
Object was in daylight at epoch
Visualization orbit readout
Latitude
Unknown
Longitude
Unknown
Altitude
Unknown
Speed
Unknown
Apparent Right ascension
Unknown
Apparent Declination
Unknown
Sunlit
N/A
Visualization observer readout
Local Sidereal Time
21:36:11
Azimuth
Unknown
Elevation
Unknown
Doppler factor
Unknown
Orbital elements
Apogee altitude
36,040.531 km
Perigee altitude
1,177.798 km
Semi-major axis
24,987.302 km
Eccentricity
0.69761
Inclination
20.4637°
RAAN
249.0877°
Arg. of periapsis
154.2744°
True anomaly
205.77098°
Mean anomaly
270.4084°
Eccentric anomaly
236.91792°
Mean motion
0.5495 °/min
Orbital period
655.15 mins
BSTAR
0
Loading maneuver chart data...
Computing Atmospheric mass density...
Loading historical data...
Loading historical data...
Loading historical data...
Loading historical data...
Loading historical data...
Loading historical data...
Loading historical data...

Documentation

Showing up to 5 results
|